Location: Marsån
(66.4167°N, 22.2833°E)
Time: 11:08:48
(UTC+00:00)

SJ-6B - Pass Details

Date: 24 February 2024
Orbit: 493 x 551 km, 97.4° (Epoch: 15 April)

Event Time Altitude Azimuth Distance (km) Brightness Sun altitude
Rises 17:21:28 0° 165° (SSE) 2,576 6.0 -12.4°
Reaches altitude 10° 17:23:33 10° 167° (SSE) 1,696 5.1 -12.6°
Maximum altitude 17:27:11 72° 253° (WSW) 528 2.9 -13.0°
Drops below altitude 10° 17:30:52 10° 339° (NNW) 1,716 5.7 -13.3°
Sets 17:32:58 0° 341° (NNW) 2,609 6.6 -13.5°
